SCP
-0 0 -0 -0 -0 -0 -0 -0 -0 -0 -0 0 0 -0 -0 -0 -0 -0 -0 -0 -0 -0 0 0 0 0 0 0 0 -0 0 0 0 -0 -0 0 -0 -0 -0 -0 0 0 -0
0 0 -0 -0 -0 -0 -0 -0 -0 -0 -0 -0 0 0 -0 -0 -0 -0 -0 -0 -0 -0 -0 0 0 -0 -0 -0 0 0 0 -0 0 0 0 0 -0 -0 -0 -0 -0 -0 -0
0 0 -0 -0 -0 -0 -0 -0 -0 -0 -0 -0 -0 -0 0 0 -0 -0 -0 -0 -0 0 0 0 0 0 0 0 0 0 0 0 0 0 0 0 0 0 -0 -0 -0 -0 -0
0 0 0 -0 -0 -0 -0 -0 -0 -0 -0 -0 -0 -0 -0 -0 -0 0 0 0 -0 -0 0 0 0 -0 0 0 0 0 0 0 0 0 0 0 0 0 0 0 -0 -0 -0
0 0 0 -0 -0 -0 -0 -0 -0 -0 -0 -0 -0 -0 -0 -0 -0 0 0 0 0 0 0 0 0 0 0 0 0 0 0 0 0 0 0 0 0 0 0 0 0 0 0
0 0 -0 -0 -0 -0 -0 -0 -0 -0 -0 -0 -0 -0 -0 -0 -0 0 0 0 0 0 0 0 0 0 0 0 0 0 0 0 0 0 0 0 0 0 0 0 0 0 0
0 0 0 -0 -0 -0 -0 -0 -0 -0 -0 -0 -0 -0 0 -0 -0 0 0 0 0 0 0 0 0 0 0 0 0 0 0 0 0 0 0 0 0 0 0 0 0 0 0
0 0 0 0 0 -0 -0 -0 -0 -0 -0 0 0 0 -0 -0 0 0 0 0 0 0 0 0 0 0 0 0 0 0 0 0 0 0 0 0 0 0 0 0 0 0 0
0 0 0 0 0 0 0 -0 -0 -0 0 0 0 0 0 0 0 0 0 0 0 0 0 0 0 0 0 0 0 0 0 0 0 0 0 0 0 0 0 0 0 0 0
0 0 0 0 0 0 0 0 0 0 0 0 0 0 0 0 0 0 0 0 0 0 0 0 0 0 0 0 0 0 0 0 0 0 0 0 0 0 0 0 0 0 0
0 0 0 0 0 0 0 0 0 0 0 0 0 0 0 0 0 0 0 0 0 0 0 0 0 0 0 0 0 0 0 0 0 0 0 0 0 0 0 0 0 0 0
0 0 0 0 0 0 0 0 0 0 0 0 0 0 0 0 0 0 0 0 0 0 0 0 0 0 0 0 0 0 0 0 0 0 0 0 0 0 0 0 0 0 0
0 0 0 0 0 0 0 0 0 0 0 0 0 0 0 0 0 0 0 0 0 0 0 0 0 0 0 0 0 0 0 0 0 0 0 0 0 0 0 0 0 0 0
0 0 -0 0 0 0 0 0 0 0 0 0 0 0 0 0 0 0 0 0 0 0 0 0 0 0 0 0 0 0 0 0 0 0 0 0 0 0 0 0 0 0 0
0 0 0 0 0 0 0 0 0 0 0 0 0 0 0 0 0 0 0 0 0 0 0 0 0 0 0 0 0 0 0 0 0 0 0 0 0 0 0 0 0 0 -0
0 0 0 0 0 0 0 0 0 0 0 0 0 0 0 0 0 0 0 0 0 0 0 0 0 0 0 0 0 0 0 0 0 0 0 0 0 0 0 0 0 0 -0
0 0 0 0 0 0 0 0 0 0 0 0 0 0 0 0 0 0 0 0 0 0 0 0 0 0 0 0 0 0 0 0 0 0 0 0 0 0 0 0 0 0 0
0 0 0 0 0 0 0 0 0 0 0 0 0 0 0 0 0 0 0 0 0 0 0 0 0 0 0 0 0 0 0 0 0 0 0 0 0 0 0 0 0 0 0
0 0 0 0 0 0 0 0 0 0 0 0 0 0 0 0 0 0 0 0 0 0 0 0 0 0 0 0 0 0 0 0 0 0 0 0 0 0 0 0 0 0 0
0 0 0 0 0 0 0 0 0 0 0 0 0 0 0 0 0 0 0 0 0 0 0 0 0 0 0 0 0 0 0 0 0 0 0 0 0 0 0 0 0 0 0
0 0 0 0 0 0 0 0 0 0 0 0 0 0 0 0 0 0 0 0 0 0 0 0 0 0 0 0 0 0 0 0 0 0 0 0 0 0 0 0 0 0 0
0 0 0 0 0 0 0 0 0 0 0 0 0 0 0 0 0 0 0 0 0 0 0 0 0 0 0 0 0 0 0 0 0 0 0 0 0 0 0 0 0 0 0
0 0 0 0 0 0 0 0 0 0 0 0 0 0 0 0 0 0 0 0 0 0 0 0 0 0 0 0 0 0 0 0 0 0 0 0 0 0 0 0 0 0 0
0 0 0 0 0 0 0 0 0 0 0 -0 -0 -0 0 0 0 0 0 0 0 0 0 0 0 0 0 0 0 0 0 0 0 0 0 0 0 0 0 0 0 0 0
0 0 0 0 0 0 0 0 -0 -0 -0 -0 -0 0 0 0 0 0 0 0 0 0 0 0 0 0 0 0 0 0 0 0 0 0 0 0 0 0 0 0 0 0 0
0 0 0 0 0 -0 -0 -0 -0 -0 -0 -0 0 -0 -0 0 0 0 0 0 0 0 0 0 0 0 0 0 0 0 0 0 0 0 0 0 0 -0 0 0 0 0 0
Wind_Speed_500mb
15 31 35 33 33 31 28 30 27 23 19 15 14 12 9 9 11 10 8 6 6 6 8 9 9 9 9 9 9 7 9 9 10 10 10 10 13 13 17 17 14 16 13
15 29 34 32 30 28 27 27 27 27 21 16 13 10 9 7 5 7 3 4 4 4 5 7 9 8 7 6 5 5 5 5 5 6 4 5 9 11 13 17 17 13 11
12 25 32 32 30 29 28 27 26 23 19 17 14 11 9 7 3 3 4 8 8 7 4 6 8 8 8 6 3 1 1 1 1 2 2 1 3 5 7 9 11 14 16
9 20 28 31 30 28 27 27 25 23 20 18 16 14 9 5 6 9 10 14 10 5 3 4 6 8 9 6 5 5 6 4 3 4 6 7 3 5 4 3 2 5 6
7 14 26 29 29 28 26 24 24 22 20 17 15 14 9 6 9 9 10 11 7 4 6 7 7 8 9 9 6 7 9 7 5 7 3 6 14 9 2 4 6 6 4
6 9 21 29 29 28 27 27 25 24 22 18 16 16 13 19 14 11 13 13 12 8 8 9 11 12 11 11 8 6 7 8 6 5 4 5 8 8 7 7 7 9 8
4 9 14 25 30 30 28 28 27 25 23 18 17 17 19 19 15 18 21 19 17 12 8 10 12 11 11 11 8 6 6 7 6 7 8 11 13 14 12 13 9 11 9
4 7 12 18 28 31 31 30 29 28 26 22 19 22 23 21 18 18 17 19 20 13 11 13 14 13 12 9 6 3 4 6 8 9 11 13 15 16 18 16 12 12 13
3 7 11 16 24 31 33 32 32 31 29 26 22 26 25 25 23 21 16 19 18 15 15 15 13 13 12 11 10 7 4 5 9 12 13 14 16 19 19 16 15 13 12
6 6 10 14 20 28 34 34 32 33 32 28 23 27 28 29 28 22 16 17 20 16 17 15 13 13 10 10 10 11 9 9 11 13 15 16 16 17 19 18 17 15 15
13 10 13 16 20 25 31 35 34 33 35 32 28 28 32 31 29 22 19 20 19 20 19 18 16 15 14 11 13 12 11 12 12 14 16 17 18 20 21 20 20 19 20
22 20 22 23 24 25 28 33 37 37 38 37 35 33 32 33 27 23 23 22 23 24 24 21 18 16 16 15 16 16 15 15 15 16 17 18 18 20 22 21 19 20 23
26 28 30 30 28 28 27 27 32 36 38 38 36 34 29 29 31 29 26 24 25 26 27 28 25 19 18 19 20 21 20 18 19 19 19 19 19 20 21 22 20 21 25
20 23 29 33 32 29 26 25 23 28 34 36 32 33 33 32 31 32 31 27 25 27 31 33 29 25 22 23 24 25 25 25 24 22 21 21 20 21 22 25 22 21 26
31 29 24 29 31 27 23 21 17 17 22 31 32 30 32 33 31 33 33 32 31 32 34 32 31 29 28 27 28 30 31 30 30 29 27 26 25 23 24 24 26 24 17
25 28 28 29 29 27 22 16 8 6 7 13 25 27 30 31 34 30 34 31 30 34 34 34 31 30 30 31 32 34 36 37 36 35 33 31 31 28 27 27 26 26 22
20 14 15 28 31 30 26 20 11 4 2 7 12 15 22 22 25 26 26 28 27 30 34 31 27 27 29 33 33 34 36 39 41 41 40 38 36 35 33 32 31 30 27
17 10 3 20 31 31 27 22 17 12 12 14 15 19 20 22 23 22 21 26 26 32 29 26 27 31 32 33 34 35 37 39 41 43 44 44 43 42 39 38 37 36 34
25 23 18 18 25 27 29 26 19 14 15 11 9 10 11 11 12 14 18 20 23 29 28 30 31 35 37 37 38 38 42 46 47 46 47 48 50 48 45 43 44 43 40
34 32 32 31 30 27 27 21 16 12 7 1 8 12 11 11 17 20 21 22 31 32 27 32 37 41 41 42 45 48 46 48 51 53 52 50 50 50 50 49 49 48 46
30 33 37 34 37 30 25 18 11 5 1 5 5 7 12 16 18 21 22 21 23 25 29 33 36 36 37 38 49 51 56 56 53 48 52 53 53 53 53 54 54 53 52
53 51 48 44 36 31 23 24 21 17 16 15 13 10 10 8 8 11 14 17 18 20 22 23 27 31 34 32 40 45 32 50 18 17 24 27 32 44 51 56 60 59 57
63 63 60 57 52 48 43 36 32 28 27 23 23 20 20 18 15 13 12 14 18 21 23 24 26 31 35 32 27 22 19 18 61 39 32 35 40 38 34 33 44 55 59
57 52 50 47 44 41 35 30 25 26 24 28 26 25 23 22 22 21 20 19 20 22 24 26 30 32 36 37 32 25 30 42 35 47 55 52 54 56 55 56 55 47 44
45 42 40 36 33 32 27 27 26 29 32 27 24 21 21 23 23 25 26 27 26 26 27 28 28 29 32 34 37 41 39 37 42 55 80 76 75 73 64 63 66 69 69
37 34 32 29 32 28 25 26 26 26 26 21 23 25 28 29 29 31 32 33 34 35 35 35 35 34 34 31 32 34 40 43 48 48 64 79 86 88 79 74 71 67 67
Wind_Direction_500mb
174 174 175 177 176 177 178 181 181 175 175 168 162 158 149 139 127 122 115 92 72 68 75 73 59 51 52 57 77 104 114 108 80 94 113 91 81 93 88 97 102 89 91
178 178 178 181 181 181 183 182 185 186 186 185 182 180 159 141 138 127 109 344 355 12 36 48 49 41 37 40 55 78 106 112 83 87 105 109 98 87 106 96 93 100 101
168 183 180 183 186 186 190 193 193 197 202 207 204 195 184 161 187 290 318 304 312 331 9 26 30 13 1 345 1 15 272 291 47 42 32 14 133 125 120 120 108 93 98
164 188 187 186 190 190 194 201 202 206 208 211 209 209 212 217 258 277 292 279 290 306 331 353 7 356 337 324 317 304 282 302 296 312 9 46 103 203 209 233 158 137 123
170 184 195 193 197 198 192 198 202 205 209 211 217 226 232 225 171 193 229 289 313 322 317 328 338 333 322 314 306 296 291 304 308 303 333 50 62 60 303 281 273 256 246
177 180 194 199 202 207 201 205 206 209 212 219 230 246 244 242 278 319 295 296 298 317 315 320 329 329 325 311 301 285 278 276 281 288 289 332 2 357 336 305 291 280 252
165 189 199 206 209 211 213 212 214 216 221 229 243 241 243 259 267 297 319 304 301 310 314 318 323 327 324 318 317 297 268 274 272 284 294 314 332 339 331 324 294 287 278
148 206 210 211 216 218 220 219 220 223 225 227 236 233 247 247 267 302 316 327 315 321 321 326 327 325 319 311 305 286 280 281 282 278 291 311 317 325 326 327 322 306 295
261 232 229 223 221 222 226 227 222 225 228 230 226 233 245 247 269 292 305 325 333 326 332 337 328 324 321 316 316 312 300 278 282 291 296 303 311 318 324 328 322 317 305
270 271 252 240 232 229 231 230 227 224 228 233 232 240 245 252 269 286 299 317 345 336 332 333 320 316 308 300 300 304 305 297 290 296 303 308 311 314 314 317 313 314 301
258 267 257 249 243 234 234 236 235 229 230 231 235 236 244 254 268 277 291 307 325 339 331 329 320 317 304 288 284 284 285 286 291 299 305 309 311 310 311 315 316 317 310
266 268 264 254 249 244 238 235 236 235 234 235 234 242 251 257 259 268 276 294 312 325 331 328 314 311 297 286 281 281 284 289 293 298 300 303 306 308 312 316 319 316 308
263 259 261 259 253 250 246 243 239 238 238 238 239 240 251 262 252 262 271 289 301 314 322 324 320 303 289 279 274 274 273 274 280 286 290 294 297 300 304 308 316 313 306
285 276 246 242 247 247 246 247 252 250 245 240 246 248 250 258 267 273 276 283 294 309 316 316 311 301 289 280 270 268 271 273 274 276 279 283 288 293 295 301 311 311 306
299 282 255 230 229 235 234 242 255 267 256 245 238 252 255 260 268 275 279 288 297 302 310 314 305 301 296 289 282 277 275 274 274 276 277 279 280 283 287 292 301 307 294
295 276 248 220 211 217 219 225 248 291 281 249 244 254 259 266 272 288 280 287 296 300 303 306 304 300 298 297 295 289 282 279 278 277 276 276 278 281 282 284 287 289 293
333 307 246 208 200 199 206 210 213 189 196 226 229 246 253 266 276 278 283 291 290 291 299 296 295 297 298 297 297 292 289 285 283 281 279 279 278 279 279 280 278 276 277
19 21 88 186 187 185 188 192 200 201 210 224 222 226 240 248 250 263 274 280 287 295 305 307 309 308 299 295 291 286 283 280 279 278 278 278 278 276 276 276 276 274 273
54 60 77 121 147 159 169 177 185 199 219 216 237 239 249 260 269 277 279 274 287 297 300 294 299 304 308 298 293 287 283 279 276 273 270 269 268 269 270 270 272 271 270
76 79 88 100 110 126 139 153 167 166 160 247 275 278 285 298 280 274 276 299 287 282 282 290 296 297 303 307 306 291 283 280 276 274 273 271 270 270 270 269 269 269 267
89 92 92 99 98 109 118 125 125 122 40 297 320 310 292 287 289 283 286 291 287 294 294 294 294 297 300 308 306 300 291 285 285 284 279 275 273 271 267 266 266 265 264
89 88 90 90 98 97 98 93 92 91 91 82 65 46 36 18 349 324 312 311 307 296 291 293 296 301 298 303 311 316 322 318 289 263 308 284 272 268 267 267 264 263 263
89 87 86 85 84 82 83 86 91 92 90 91 76 64 49 33 19 5 346 327 320 319 320 320 313 309 308 310 303 308 322 300 310 315 293 272 278 280 279 282 273 265 264
85 84 82 81 81 84 87 88 88 82 72 63 53 46 39 32 27 22 14 0 348 337 327 325 319 315 311 311 307 289 276 282 300 306 299 293 286 281 275 274 278 278 271
86 80 79 78 80 78 74 72 67 66 66 63 57 47 35 25 17 11 6 3 358 355 350 344 339 336 326 316 310 305 295 284 277 285 294 297 295 292 288 281 277 273 269
85 82 76 70 70 71 67 66 59 58 55 41 31 21 16 7 3 358 354 350 347 343 341 341 340 336 334 331 323 313 304 300 295 290 290 294 296 297 297 294 290 283 276
Wind_Speed_850mb
15 31 35 33 33 31 28 30 27 23 19 15 14 12 9 9 11 10 8 6 6 6 8 9 9 9 9 9 9 7 9 9 10 10 10 10 13 13 17 17 14 16 13
15 29 34 32 30 28 27 27 27 27 21 16 13 10 9 7 5 7 3 4 4 4 5 7 9 8 7 6 5 5 5 5 5 6 4 5 9 11 13 17 17 13 11
12 25 32 32 30 29 28 27 26 23 19 17 14 11 9 7 3 3 4 8 8 7 4 6 8 8 8 6 3 1 1 1 1 2 2 1 3 5 7 9 11 14 16
9 20 28 31 30 28 27 27 25 23 20 18 16 14 9 5 6 9 10 14 10 5 3 4 6 8 9 6 5 5 6 4 3 4 6 7 3 5 4 3 2 5 6
7 14 26 29 29 28 26 24 24 22 20 17 15 14 9 6 9 9 10 11 7 4 6 7 7 8 9 9 6 7 9 7 5 7 3 6 14 9 2 4 6 6 4
6 9 21 29 29 28 27 27 25 24 22 18 16 16 13 19 14 11 13 13 12 8 8 9 11 12 11 11 8 6 7 8 6 5 4 5 8 8 7 7 7 9 8
4 9 14 25 30 30 28 28 27 25 23 18 17 17 19 19 15 18 21 19 17 12 8 10 12 11 11 11 8 6 6 7 6 7 8 11 13 14 12 13 9 11 9
4 7 12 18 28 31 31 30 29 28 26 22 19 22 23 21 18 18 17 19 20 13 11 13 14 13 12 9 6 3 4 6 8 9 11 13 15 16 18 16 12 12 13
3 7 11 16 24 31 33 32 32 31 29 26 22 26 25 25 23 21 16 19 18 15 15 15 13 13 12 11 10 7 4 5 9 12 13 14 16 19 19 16 15 13 12
6 6 10 14 20 28 34 34 32 33 32 28 23 27 28 29 28 22 16 17 20 16 17 15 13 13 10 10 10 11 9 9 11 13 15 16 16 17 19 18 17 15 15
13 10 13 16 20 25 31 35 34 33 35 32 28 28 32 31 29 22 19 20 19 20 19 18 16 15 14 11 13 12 11 12 12 14 16 17 18 20 21 20 20 19 20
22 20 22 23 24 25 28 33 37 37 38 37 35 33 32 33 27 23 23 22 23 24 24 21 18 16 16 15 16 16 15 15 15 16 17 18 18 20 22 21 19 20 23
26 28 30 30 28 28 27 27 32 36 38 38 36 34 29 29 31 29 26 24 25 26 27 28 25 19 18 19 20 21 20 18 19 19 19 19 19 20 21 22 20 21 25
20 23 29 33 32 29 26 25 23 28 34 36 32 33 33 32 31 32 31 27 25 27 31 33 29 25 22 23 24 25 25 25 24 22 21 21 20 21 22 25 22 21 26
31 29 24 29 31 27 23 21 17 17 22 31 32 30 32 33 31 33 33 32 31 32 34 32 31 29 28 27 28 30 31 30 30 29 27 26 25 23 24 24 26 24 17
25 28 28 29 29 27 22 16 8 6 7 13 25 27 30 31 34 30 34 31 30 34 34 34 31 30 30 31 32 34 36 37 36 35 33 31 31 28 27 27 26 26 22
20 14 15 28 31 30 26 20 11 4 2 7 12 15 22 22 25 26 26 28 27 30 34 31 27 27 29 33 33 34 36 39 41 41 40 38 36 35 33 32 31 30 27
17 10 3 20 31 31 27 22 17 12 12 14 15 19 20 22 23 22 21 26 26 32 29 26 27 31 32 33 34 35 37 39 41 43 44 44 43 42 39 38 37 36 34
25 23 18 18 25 27 29 26 19 14 15 11 9 10 11 11 12 14 18 20 23 29 28 30 31 35 37 37 38 38 42 46 47 46 47 48 50 48 45 43 44 43 40
34 32 32 31 30 27 27 21 16 12 7 1 8 12 11 11 17 20 21 22 31 32 27 32 37 41 41 42 45 48 46 48 51 53 52 50 50 50 50 49 49 48 46
30 33 37 34 37 30 25 18 11 5 1 5 5 7 12 16 18 21 22 21 23 25 29 33 36 36 37 38 49 51 56 56 53 48 52 53 53 53 53 54 54 53 52
53 51 48 44 36 31 23 24 21 17 16 15 13 10 10 8 8 11 14 17 18 20 22 23 27 31 34 32 40 45 32 50 18 17 24 27 32 44 51 56 60 59 57
63 63 60 57 52 48 43 36 32 28 27 23 23 20 20 18 15 13 12 14 18 21 23 24 26 31 35 32 27 22 19 18 61 39 32 35 40 38 34 33 44 55 59
57 52 50 47 44 41 35 30 25 26 24 28 26 25 23 22 22 21 20 19 20 22 24 26 30 32 36 37 32 25 30 42 35 47 55 52 54 56 55 56 55 47 44
45 42 40 36 33 32 27 27 26 29 32 27 24 21 21 23 23 25 26 27 26 26 27 28 28 29 32 34 37 41 39 37 42 55 80 76 75 73 64 63 66 69 69
37 34 32 29 32 28 25 26 26 26 26 21 23 25 28 29 29 31 32 33 34 35 35 35 35 34 34 31 32 34 40 43 48 48 64 79 86 88 79 74 71 67 67
Wind_Direction_850mb
174 174 175 177 176 177 178 181 181 175 175 168 162 158 149 139 127 122 115 92 72 68 75 73 59 51 52 57 77 104 114 108 80 94 113 91 81 93 88 97 102 89 91
178 178 178 181 181 181 183 182 185 186 186 185 182 180 159 141 138 127 109 344 355 12 36 48 49 41 37 40 55 78 106 112 83 87 105 109 98 87 106 96 93 100 101
168 183 180 183 186 186 190 193 193 197 202 207 204 195 184 161 187 290 318 304 312 331 9 26 30 13 1 345 1 15 272 291 47 42 32 14 133 125 120 120 108 93 98
164 188 187 186 190 190 194 201 202 206 208 211 209 209 212 217 258 277 292 279 290 306 331 353 7 356 337 324 317 304 282 302 296 312 9 46 103 203 209 233 158 137 123
170 184 195 193 197 198 192 198 202 205 209 211 217 226 232 225 171 193 229 289 313 322 317 328 338 333 322 314 306 296 291 304 308 303 333 50 62 60 303 281 273 256 246
177 180 194 199 202 207 201 205 206 209 212 219 230 246 244 242 278 319 295 296 298 317 315 320 329 329 325 311 301 285 278 276 281 288 289 332 2 357 336 305 291 280 252
165 189 199 206 209 211 213 212 214 216 221 229 243 241 243 259 267 297 319 304 301 310 314 318 323 327 324 318 317 297 268 274 272 284 294 314 332 339 331 324 294 287 278
148 206 210 211 216 218 220 219 220 223 225 227 236 233 247 247 267 302 316 327 315 321 321 326 327 325 319 311 305 286 280 281 282 278 291 311 317 325 326 327 322 306 295
261 232 229 223 221 222 226 227 222 225 228 230 226 233 245 247 269 292 305 325 333 326 332 337 328 324 321 316 316 312 300 278 282 291 296 303 311 318 324 328 322 317 305
270 271 252 240 232 229 231 230 227 224 228 233 232 240 245 252 269 286 299 317 345 336 332 333 320 316 308 300 300 304 305 297 290 296 303 308 311 314 314 317 313 314 301
258 267 257 249 243 234 234 236 235 229 230 231 235 236 244 254 268 277 291 307 325 339 331 329 320 317 304 288 284 284 285 286 291 299 305 309 311 310 311 315 316 317 310
266 268 264 254 249 244 238 235 236 235 234 235 234 242 251 257 259 268 276 294 312 325 331 328 314 311 297 286 281 281 284 289 293 298 300 303 306 308 312 316 319 316 308
263 259 261 259 253 250 246 243 239 238 238 238 239 240 251 262 252 262 271 289 301 314 322 324 320 303 289 279 274 274 273 274 280 286 290 294 297 300 304 308 316 313 306
285 276 246 242 247 247 246 247 252 250 245 240 246 248 250 258 267 273 276 283 294 309 316 316 311 301 289 280 270 268 271 273 274 276 279 283 288 293 295 301 311 311 306
299 282 255 230 229 235 234 242 255 267 256 245 238 252 255 260 268 275 279 288 297 302 310 314 305 301 296 289 282 277 275 274 274 276 277 279 280 283 287 292 301 307 294
295 276 248 220 211 217 219 225 248 291 281 249 244 254 259 266 272 288 280 287 296 300 303 306 304 300 298 297 295 289 282 279 278 277 276 276 278 281 282 284 287 289 293
333 307 246 208 200 199 206 210 213 189 196 226 229 246 253 266 276 278 283 291 290 291 299 296 295 297 298 297 297 292 289 285 283 281 279 279 278 279 279 280 278 276 277
19 21 88 186 187 185 188 192 200 201 210 224 222 226 240 248 250 263 274 280 287 295 305 307 309 308 299 295 291 286 283 280 279 278 278 278 278 276 276 276 276 274 273
54 60 77 121 147 159 169 177 185 199 219 216 237 239 249 260 269 277 279 274 287 297 300 294 299 304 308 298 293 287 283 279 276 273 270 269 268 269 270 270 272 271 270
76 79 88 100 110 126 139 153 167 166 160 247 275 278 285 298 280 274 276 299 287 282 282 290 296 297 303 307 306 291 283 280 276 274 273 271 270 270 270 269 269 269 267
89 92 92 99 98 109 118 125 125 122 40 297 320 310 292 287 289 283 286 291 287 294 294 294 294 297 300 308 306 300 291 285 285 284 279 275 273 271 267 266 266 265 264
89 88 90 90 98 97 98 93 92 91 91 82 65 46 36 18 349 324 312 311 307 296 291 293 296 301 298 303 311 316 322 318 289 263 308 284 272 268 267 267 264 263 263
89 87 86 85 84 82 83 86 91 92 90 91 76 64 49 33 19 5 346 327 320 319 320 320 313 309 308 310 303 308 322 300 310 315 293 272 278 280 279 282 273 265 264
85 84 82 81 81 84 87 88 88 82 72 63 53 46 39 32 27 22 14 0 348 337 327 325 319 315 311 311 307 289 276 282 300 306 299 293 286 281 275 274 278 278 271
86 80 79 78 80 78 74 72 67 66 66 63 57 47 35 25 17 11 6 3 358 355 350 344 339 336 326 316 310 305 295 284 277 285 294 297 295 292 288 281 277 273 269
85 82 76 70 70 71 67 66 59 58 55 41 31 21 16 7 3 358 354 350 347 343 341 341 340 336 334 331 323 313 304 300 295 290 290 294 296 297 297 294 290 283 276